| time (UTC) | temp C | wind direction | speed KPH | gust KPH | rain 1hr cm | rain 24hr cm | rain mn cm | humidity % | barometer mb |
| 20260506014236 | 6 | 83 | 0.0 | 0.0 | 0.00 | 0.00 | 0.53 | 98 | 1012.2 |
| 20260506013733 | 6 | 102 | 0.0 | 0.0 | 0.00 | 0.00 | 0.53 | 98 | 1012.2 |
| 20260506013251 | 6 | 86 | 0.0 | 0.0 | 0.00 | 0.00 | 0.53 | 98 | 1012.2 |
| 20260506012748 | 6 | 94 | 0.0 | 0.0 | 0.00 | 0.00 | 0.53 | 98 | 1012.2 |
| 20260506012247 | 6 | 99 | 0.0 | 0.0 | 0.00 | 0.00 | 0.53 | 98 | 1012.2 |
| 20260506011743 | 6 | 103 | 0.0 | 0.0 | 0.00 | 0.00 | 0.53 | 98 | 1012.2 |
| 20260506011239 | 6 | 83 | 0.0 | 0.0 | 0.00 | 0.00 | 0.53 | 98 | 1012.5 |
| 20260506010736 | 6 | 94 | 0.0 | 0.0 | 0.00 | 0.00 | 0.53 | 98 | 1012.5 |
| 20260506010237 | 6 | 80 | 0.0 | 0.0 | 0.00 | 0.00 | 0.51 | 98 | 1012.5 |
| 20260506005736 | 6 | 96 | 0.0 | 0.0 | 0.00 | 0.00 | 0.51 | 98 | 1012.6 |
| 20260506005236 | 6 | 91 | 0.0 | 0.0 | 0.00 | 0.00 | 0.48 | 98 | 1012.6 |
| 20260506004752 | 6 | 93 | 0.0 | 0.0 | 0.00 | 0.00 | 0.48 | 98 | 1012.6 |
| 20260506004247 | 6 | 85 | 0.0 | 0.0 | 0.00 | 0.00 | 0.43 | 98 | 1012.7 |
| 20260505233234 | 6 | 104 | 0.0 | 0.0 | 0.00 | 0.00 | 0.23 | 98 | 1013.2 |
| 20260505232734 | 6 | 96 | 0.0 | 0.0 | 0.00 | 0.00 | 0.23 | 98 | 1013.1 |
| 20260505232250 | 6 | 123 | 0.0 | 0.0 | 0.00 | 0.00 | 0.23 | 98 | 1013.1 |
| 20260505231746 | 6 | 138 | 0.0 | 0.0 | 0.00 | 0.00 | 0.23 | 98 | 1013.1 |
| 20260505231242 | 6 | 108 | 0.0 | 0.0 | 0.00 | 0.00 | 0.23 | 98 | 1013.2 |
| 20260505230741 | 6 | 108 | 0.0 | 0.0 | 0.00 | 0.00 | 0.23 | 98 | 1013.2 |
| 20260505230237 | 6 | 155 | 0.0 | 0.0 | 0.00 | 0.00 | 0.23 | 98 | 1013.2 |
| 20260505225737 | 6 | 248 | 0.0 | 0.0 | 0.00 | 0.00 | 0.18 | 98 | 1013.2 |
| 20260505225237 | 6 | 249 | 0.0 | 0.0 | 0.00 | 0.00 | 0.13 | 98 | 1013.2 |
| 20260505224733 | 6 | 249 | 0.0 | 0.0 | 0.00 | 0.00 | 0.13 | 98 | 1013.2 |
| 20260505224253 | 6 | 249 | 0.0 | 0.0 | 0.00 | 0.00 | 0.10 | 98 | 1013.3 |
| 20260505223747 | 6 | 249 | 0.0 | 0.0 | 0.00 | 0.00 | 0.08 | 98 | 1013.3 |
| 20260505223243 | 6 | 249 | 0.0 | 0.0 | 0.00 | 0.00 | 0.03 | 98 | 1013.3 |
| 20260505222743 | 6 | 249 | 0.0 | 0.0 | 0.00 | 0.00 | 0.03 | 98 | 1013.4 |
| 20260505222248 | 6 | 249 | 0.0 | 0.0 | 0.00 | 0.00 | 0.03 | 98 | 1013.4 |
| 20260505221750 | 6 | 252 | 0.0 | 0.0 | 0.00 | 0.00 | 0.03 | 98 | 1013.4 |
| 20260505221248 | 6 | 110 | 0.0 | 0.0 | 0.00 | 0.00 | 0.00 | 98 | 1013.5 |
| 20260505220745 | 6 | 110 | 0.0 | 0.0 | 0.00 | 0.00 | 0.00 | 98 | 1013.5 |
| 20260505220245 | 6 | 103 | 0.0 | 0.0 | 0.00 | 0.00 | 0.00 | 98 | 1013.5 |
| 20260505215742 | 6 | 98 | 0.0 | 0.0 | 0.00 | 0.00 | 1.24 | 98 | 1013.6 |
| 20260505215239 | 6 | 99 | 0.0 | 0.0 | 0.00 | 0.00 | 1.24 | 98 | 1013.6 |
| 20260505214735 | 6 | 107 | 0.0 | 0.0 | 0.00 | 0.00 | 1.24 | 98 | 1013.6 |
| 20260505214235 | 6 | 137 | 0.0 | 0.0 | 0.00 | 0.00 | 1.22 | 98 | 1013.7 |
| 20260505213752 | 6 | 102 | 0.0 | 0.0 | 0.00 | 0.00 | 1.22 | 98 | 1013.7 |
| 20260505213246 | 6 | 94 | 0.0 | 0.0 | 0.00 | 0.00 | 1.22 | 98 | 1013.7 |
| 20260505212742 | 6 | 70 | 0.0 | 0.0 | 0.00 | 0.00 | 1.22 | 98 | 1013.9 |
| 20260505212238 | 6 | 69 | 0.0 | 0.0 | 0.00 | 0.00 | 1.19 | 98 | 1013.9 |
| 20260505211734 | 6 | 69 | 0.0 | 0.0 | 0.00 | 0.00 | 1.17 | 98 | 1013.9 |
| 20260505211238 | 6 | 72 | 0.0 | 0.0 | 0.00 | 0.00 | 1.14 | 98 | 1014.1 |
| 20260505210738 | 6 | 117 | 0.0 | 0.0 | 0.00 | 0.00 | 1.09 | 98 | 1014.1 |
| 20260505210234 | 6 | 119 | 0.0 | 0.0 | 0.00 | 0.00 | 1.04 | 98 | 1014.1 |
| 20260505205750 | 6 | 119 | 0.0 | 0.0 | 0.00 | 0.00 | 1.02 | 98 | 1014.1 |
| 20260505205246 | 6 | 119 | 0.0 | 0.0 | 0.00 | 0.00 | 0.99 | 98 | 1014.1 |
| 20260505204746 | 6 | 117 | 0.0 | 0.0 | 0.00 | 0.00 | 0.94 | 98 | 1014.1 |
| 20260505204245 | 6 | 109 | 0.0 | 0.0 | 0.00 | 0.00 | 0.89 | 98 | 1013.8 |
| 20260505203745 | 6 | 113 | 0.0 | 0.0 | 0.00 | 0.00 | 0.86 | 98 | 1013.8 |
| 20260505203241 | 6 | 119 | 0.0 | 0.0 | 0.00 | 0.00 | 0.86 | 98 | 1013.8 |
| 20260505202741 | 6 | 94 | 0.0 | 0.0 | 0.00 | 0.00 | 0.86 | 98 | 1013.8 |
| 20260505202240 | 6 | 119 | 0.0 | 0.0 | 0.00 | 0.00 | 0.86 | 98 | 1013.8 |
| 20260505201740 | 6 | 117 | 0.0 | 0.0 | 0.00 | 0.00 | 0.86 | 98 | 1013.8 |
| 20260505201240 | 6 | 101 | 0.0 | 0.0 | 0.00 | 0.00 | 0.86 | 98 | 1014.1 |
| 20260505200739 | 6 | 103 | 0.0 | 0.0 | 0.00 | 0.00 | 0.86 | 98 | 1014.1 |
| 20260505200241 | 6 | 98 | 0.0 | 0.0 | 0.00 | 0.00 | 0.86 | 98 | 1014.1 |
| 20260505195737 | 6 | 108 | 0.0 | 0.0 | 0.00 | 0.00 | 0.86 | 98 | 1014.1 |
| 20260505195236 | 6 | 108 | 0.0 | 0.0 | 0.00 | 0.00 | 0.86 | 98 | 1014.1 |
| 20260505194752 | 6 | 97 | 0.0 | 0.0 | 0.00 | 0.00 | 0.86 | 98 | 1014.1 |
| 20260505194246 | 6 | 108 | 0.0 | 0.0 | 0.00 | 0.00 | 0.84 | 98 | 1013.9 |
| 20260505193742 | 6 | 114 | 0.0 | 0.0 | 0.00 | 0.00 | 0.84 | 98 | 1013.9 |
| 20260505193239 | 6 | 105 | 0.0 | 0.0 | 0.00 | 0.00 | 0.84 | 98 | 1013.9 |
| 20260505192740 | 6 | 99 | 0.0 | 0.0 | 0.00 | 0.00 | 0.84 | 98 | 1013.8 |
| 20260505192240 | 6 | 98 | 0.0 | 0.0 | 0.00 | 0.00 | 0.84 | 98 | 1013.8 |
| 20260505191740 | 6 | 96 | 0.0 | 0.0 | 0.00 | 0.00 | 0.84 | 98 | 1013.8 |
| 20260505191240 | 6 | 140 | 0.0 | 0.0 | 0.00 | 0.00 | 0.84 | 98 | 1013.8 |
| 20260505190740 | 6 | 140 | 0.0 | 0.0 | 0.00 | 0.00 | 0.84 | 97 | 1013.8 |
| 20260505190242 | 6 | 140 | 0.0 | 0.0 | 0.00 | 0.00 | 0.84 | 97 | 1013.8 |
| 20260505185739 | 6 | 140 | 0.0 | 0.0 | 0.00 | 0.00 | 0.84 | 97 | 1013.9 |
| 20260505185242 | 6 | 140 | 0.0 | 0.0 | 0.00 | 0.00 | 0.84 | 97 | 1013.9 |
| 20260505184738 | 6 | 141 | 0.0 | 0.0 | 0.00 | 0.00 | 0.84 | 98 | 1013.9 |
| 20260505184233 | 6 | 138 | 0.0 | 0.0 | 0.00 | 0.00 | 0.84 | 97 | 1013.8 |
| 20260505183730 | 6 | 101 | 0.0 | 0.0 | 0.00 | 0.00 | 0.84 | 97 | 1013.8 |
| 20260505183248 | 6 | 99 | 0.0 | 0.0 | 0.00 | 0.00 | 0.84 | 97 | 1013.8 |
| 20260505182744 | 6 | 96 | 0.0 | 0.0 | 0.00 | 0.00 | 0.81 | 97 | 1013.8 |
| 20260505182243 | 6 | 111 | 0.0 | 0.0 | 0.00 | 0.00 | 0.81 | 97 | 1013.8 |
| 20260505181740 | 6 | 120 | 0.0 | 0.0 | 0.00 | 0.00 | 0.81 | 97 | 1013.8 |
| 20260505181234 | 6 | 103 | 0.0 | 0.0 | 0.00 | 0.00 | 0.81 | 97 | 1013.5 |
| 20260505180734 | 6 | 99 | 0.0 | 0.0 | 0.00 | 0.00 | 0.81 | 97 | 1013.5 |
| 20260505180249 | 6 | 101 | 0.0 | 0.0 | 0.00 | 0.00 | 0.81 | 97 | 1013.5 |
| 20260505175745 | 6 | 98 | 0.0 | 0.0 | 0.00 | 0.00 | 0.81 | 97 | 1013.5 |
| 20260505175241 | 6 | 110 | 0.0 | 0.0 | 0.00 | 0.00 | 0.79 | 97 | 1013.5 |
| 20260505174737 | 6 | 115 | 0.0 | 0.0 | 0.00 | 0.00 | 0.79 | 97 | 1013.5 |
| 20260505174234 | 6 | 101 | 0.0 | 0.0 | 0.00 | 0.00 | 0.79 | 97 | 1013.5 |
| 20260505173739 | 6 | 111 | 0.0 | 0.0 | 0.00 | 0.00 | 0.79 | 97 | 1013.5 |
| 20260505173239 | 6 | 100 | 0.0 | 0.0 | 0.00 | 0.00 | 0.79 | 97 | 1013.5 |
| 20260505172740 | 6 | 108 | 0.0 | 0.0 | 0.00 | 0.00 | 0.79 | 97 | 1013.4 |
| 20260505172242 | 6 | 114 | 0.0 | 0.0 | 0.00 | 0.00 | 0.79 | 97 | 1013.4 |
| 20260505171738 | 6 | 91 | 0.0 | 0.0 | 0.00 | 0.00 | 0.79 | 97 | 1013.4 |
| 20260505171234 | 6 | 98 | 0.0 | 0.0 | 0.00 | 0.00 | 0.79 | 97 | 1013.5 |
| 20260505170749 | 6 | 98 | 0.0 | 0.0 | 0.00 | 0.00 | 0.79 | 97 | 1013.5 |
| 20260505170244 | 6 | 101 | 0.0 | 0.0 | 0.00 | 0.00 | 0.79 | 97 | 1013.5 |
| 20260505165740 | 6 | 98 | 0.0 | 0.0 | 0.00 | 0.00 | 0.79 | 97 | 1013.6 |
| 20260505165243 | 6 | 96 | 0.0 | 0.0 | 0.00 | 0.00 | 0.79 | 97 | 1013.6 |
| 20260505164738 | 6 | 115 | 0.0 | 0.0 | 0.00 | 0.00 | 0.79 | 97 | 1013.6 |
| 20260505164234 | 6 | 100 | 0.0 | 0.0 | 0.00 | 0.00 | 0.79 | 97 | 1013.6 |
| 20260505163731 | 6 | 99 | 0.0 | 0.0 | 0.00 | 0.00 | 0.79 | 97 | 1013.6 |
| 20260505163250 | 6 | 101 | 0.0 | 0.0 | 0.00 | 0.00 | 0.79 | 97 | 1013.6 |
| 20260505162746 | 6 | 115 | 0.0 | 0.0 | 0.00 | 0.00 | 0.79 | 97 | 1013.6 |
| 20260505162247 | 6 | 110 | 0.0 | 0.0 | 0.00 | 0.00 | 0.79 | 97 | 1013.6 |
| 20260505161744 | 6 | 105 | 0.0 | 0.0 | 0.00 | 0.00 | 0.79 | 97 | 1013.6 |
| 20260505161240 | 6 | 98 | 0.0 | 0.0 | 0.00 | 0.00 | 0.79 | 97 | 1013.6 |
| 20260505160737 | 6 | 96 | 0.0 | 0.0 | 0.00 | 0.00 | 0.79 | 97 | 1013.6 |
| 20260505160238 | 6 | 122 | 0.0 | 0.0 | 0.00 | 0.00 | 0.79 | 97 | 1013.6 |
| 20260505153239 | 6 | 97 | 0.0 | 0.0 | 0.00 | 0.00 | 0.79 | 96 | 1013.8 |
| 20260505152735 | 6 | 108 | 0.0 | 0.0 | 0.00 | 0.00 | 0.79 | 96 | 1013.7 |
| 20260505152250 | 6 | 98 | 0.0 | 0.0 | 0.00 | 0.00 | 0.79 | 96 | 1013.7 |
| 20260505151747 | 6 | 101 | 0.0 | 0.0 | 0.00 | 0.00 | 0.79 | 96 | 1013.7 |
| 20260505151231 | 6 | 101 | 0.0 | 0.0 | 0.00 | 0.00 | 0.79 | 96 | 1013.8 |
| 20260505150749 | 6 | 96 | 0.0 | 0.0 | 0.00 | 0.00 | 0.79 | 96 | 1013.8 |
| 20260505150244 | 6 | 96 | 0.0 | 0.0 | 0.00 | 0.00 | 0.79 | 96 | 1013.8 |
| 20260505140238 | 6 | 94 | 0.0 | 0.0 | 0.00 | 0.00 | 0.71 | 97 | 1013.9 |
| 20260505130239 | 6 | 86 | 0.0 | 0.0 | 0.00 | 0.00 | 0.71 | 96 | 1014.0 |
| 20260505124745 | 6 | 102 | 0.0 | 0.0 | 0.00 | 0.00 | 0.71 | 96 | 1014.1 |
| 20260505124244 | 6 | 88 | 0.0 | 0.0 | 0.00 | 0.00 | 0.71 | 96 | 1014.2 |
| 20260505123740 | 6 | 82 | 0.0 | 0.0 | 0.00 | 0.00 | 0.71 | 96 | 1014.2 |
| 20260505123236 | 6 | 91 | 0.0 | 0.0 | 0.00 | 0.00 | 0.71 | 96 | 1014.2 |
| 20260505122751 | 6 | 98 | 0.0 | 0.0 | 0.00 | 0.00 | 0.71 | 96 | 1014.2 |
| 20260505122245 | 6 | 91 | 0.0 | 0.0 | 0.00 | 0.00 | 0.71 | 96 | 1014.2 |
| 20260505121744 | 6 | 101 | 0.0 | 0.0 | 0.00 | 0.00 | 0.71 | 96 | 1014.2 |
| 20260505121241 | 6 | 67 | 0.0 | 0.0 | 0.00 | 0.00 | 0.71 | 95 | 1014.2 |
| 20260505120740 | 6 | 119 | 0.0 | 0.0 | 0.00 | 0.00 | 0.69 | 95 | 1014.2 |
| 20260505120240 | 6 | 97 | 0.0 | 0.0 | 0.00 | 0.00 | 0.69 | 95 | 1014.2 |
| 20260505115739 | 6 | 94 | 0.0 | 0.0 | 0.00 | 0.00 | 0.69 | 95 | 1014.1 |
| 20260505115242 | 6 | 122 | 0.0 | 0.0 | 0.00 | 0.00 | 0.66 | 95 | 1014.1 |
| 20260505114738 | 6 | 87 | 0.0 | 0.0 | 0.00 | 0.00 | 0.66 | 95 | 1014.1 |
| 20260505114234 | 6 | 96 | 0.0 | 0.0 | 0.00 | 0.00 | 0.66 | 95 | 1014.2 |
| 20260505113730 | 6 | 93 | 0.0 | 0.0 | 0.00 | 0.00 | 0.66 | 95 | 1014.2 |
| 20260505113234 | 6 | 91 | 0.0 | 0.0 | 0.00 | 0.00 | 0.66 | 95 | 1014.2 |
| 20260505112750 | 6 | 88 | 0.0 | 0.0 | 0.00 | 0.00 | 0.66 | 95 | 1014.2 |
| 20260505112245 | 5 | 146 | 0.0 | 0.0 | 0.00 | 0.00 | 0.66 | 95 | 1014.2 |
| 20260505111741 | 5 | 109 | 0.0 | 0.0 | 0.00 | 0.00 | 0.66 | 95 | 1014.2 |
| 20260505111237 | 5 | 97 | 0.0 | 0.0 | 0.00 | 0.00 | 0.66 | 95 | 1014.3 |
| 20260505110732 | 5 | 102 | 0.0 | 0.0 | 0.00 | 0.00 | 0.66 | 95 | 1014.3 |
| 20260505110233 | 5 | 110 | 0.0 | 0.0 | 0.00 | 0.00 | 0.66 | 95 | 1014.3 |
| 20260505101736 | 6 | 90 | 0.0 | 0.0 | 0.00 | 0.00 | 0.61 | 93 | 1014.5 |
| 20260505101252 | 6 | 103 | 0.0 | 0.0 | 0.00 | 0.00 | 0.61 | 93 | 1014.2 |
| 20260505100747 | 6 | 95 | 0.0 | 0.0 | 0.00 | 0.00 | 0.61 | 92 | 1014.2 |
| 20260505100246 | 6 | 83 | 0.0 | 0.0 | 0.00 | 0.00 | 0.61 | 92 | 1014.2 |
| 20260505095746 | 6 | 160 | 0.0 | 0.0 | 0.00 | 0.00 | 0.58 | 92 | 1014.2 |
| 20260505095242 | 6 | 94 | 0.0 | 0.0 | 0.00 | 0.00 | 0.58 | 92 | 1014.2 |
| 20260505094740 | 6 | 98 | 0.0 | 0.0 | 0.00 | 0.00 | 0.58 | 92 | 1014.2 |
| 20260505094239 | 6 | 100 | 0.0 | 0.0 | 0.00 | 0.00 | 0.56 | 90 | 1014.3 |
| 20260505093735 | 6 | 25 | 0.0 | 0.0 | 0.00 | 0.00 | 0.53 | 90 | 1014.3 |
| 20260505093231 | 6 | 70 | 0.0 | 0.0 | 0.00 | 0.00 | 0.53 | 90 | 1014.3 |
| 20260505092730 | 6 | 87 | 0.0 | 0.0 | 0.00 | 0.00 | 0.53 | 89 | 1014.2 |
| 20260505092230 | 6 | 89 | 0.0 | 0.0 | 0.00 | 0.00 | 0.51 | 91 | 1014.2 |
| 20260505091751 | 6 | 54 | 0.0 | 0.0 | 0.00 | 0.00 | 0.51 | 91 | 1014.2 |
| 20260505091245 | 6 | 102 | 0.0 | 0.0 | 0.00 | 0.00 | 0.51 | 89 | 1014.1 |
| 20260505090741 | 6 | 88 | 0.0 | 0.0 | 0.00 | 0.00 | 0.48 | 88 | 1014.1 |
| 20260505090241 | 6 | 76 | 0.0 | 0.0 | 0.00 | 0.00 | 0.48 | 87 | 1014.1 |
| 20260505085740 | 6 | 77 | 0.0 | 0.0 | 0.00 | 0.00 | 0.46 | 87 | 1014.4 |
| 20260505085236 | 6 | 82 | 0.0 | 0.0 | 0.00 | 0.00 | 0.46 | 88 | 1014.4 |
| 20260505084735 | 6 | 105 | 0.0 | 0.0 | 0.00 | 0.00 | 0.43 | 90 | 1014.4 |
| 20260505084251 | 6 | 84 | 0.0 | 0.0 | 0.00 | 0.00 | 0.41 | 92 | 1014.5 |
| 20260505083747 | 6 | 92 | 0.0 | 0.0 | 0.00 | 0.00 | 0.38 | 94 | 1014.5 |
| 20260505083243 | 6 | 56 | 0.0 | 0.0 | 0.00 | 0.00 | 0.33 | 94 | 1014.5 |
| 20260505082739 | 6 | 102 | 0.0 | 0.0 | 0.00 | 0.00 | 0.33 | 94 | 1014.6 |
| 20260505082239 | 6 | 90 | 0.0 | 0.0 | 0.00 | 0.00 | 0.30 | 93 | 1014.6 |
| 20260505081739 | 6 | 95 | 0.0 | 0.0 | 0.00 | 0.00 | 0.28 | 93 | 1014.6 |
| 20260505080733 | 6 | 82 | 0.0 | 0.0 | 0.00 | 0.00 | 0.23 | 91 | 1014.6 |
| 20260505080250 | 6 | 82 | 0.0 | 0.0 | 0.00 | 0.00 | 0.23 | 89 | 1014.6 |
| 20260505075748 | 6 | 98 | 0.0 | 0.0 | 0.00 | 0.00 | 0.20 | 89 | 1014.5 |
| 20260505075245 | 6 | 98 | 0.0 | 0.0 | 0.00 | 0.00 | 0.18 | 90 | 1014.5 |
| 20260505074748 | 6 | 75 | 0.0 | 0.0 | 0.00 | 0.00 | 0.18 | 90 | 1014.5 |
| 20260505074247 | 6 | 63 | 0.0 | 0.0 | 0.00 | 0.00 | 0.15 | 89 | 1014.5 |
| 20260505073744 | 6 | 71 | 0.0 | 0.0 | 0.00 | 0.00 | 0.15 | 89 | 1014.5 |
| 20260505073239 | 6 | 84 | 0.0 | 0.0 | 0.00 | 0.00 | 0.15 | 87 | 1014.5 |
| 20260505072735 | 6 | 94 | 0.0 | 0.0 | 0.00 | 0.00 | 0.13 | 85 | 1014.5 |
| 20260505072232 | 6 | 84 | 0.0 | 0.0 | 0.00 | 0.00 | 0.10 | 84 | 1014.5 |
| 20260505071732 | 6 | 91 | 0.0 | 0.0 | 0.00 | 0.00 | 0.10 | 86 | 1014.5 |
| 20260505071251 | 6 | 110 | 0.0 | 0.0 | 0.00 | 0.00 | 0.10 | 86 | 1014.4 |
| 20260505070747 | 6 | 87 | 0.0 | 0.0 | 0.00 | 0.00 | 0.08 | 85 | 1014.4 |
| 20260505070243 | 6 | 84 | 0.0 | 0.0 | 0.00 | 0.00 | 0.08 | 85 | 1014.4 |
| 20260505065742 | 6 | 96 | 0.0 | 0.0 | 0.00 | 0.00 | 0.05 | 83 | 1014.5 |
| 20260505065238 | 6 | 96 | 0.0 | 0.0 | 0.00 | 0.00 | 0.05 | 83 | 1014.5 |
| 20260505064737 | 6 | 70 | 0.0 | 0.0 | 0.00 | 0.00 | 0.05 | 83 | 1014.5 |
| 20260505064234 | 6 | 57 | 0.0 | 0.0 | 0.00 | 0.00 | 0.05 | 84 | 1014.5 |
| 20260505063738 | 6 | 58 | 0.0 | 0.0 | 0.00 | 0.00 | 0.05 | 83 | 1014.5 |
| 20260505063237 | 6 | 79 | 0.0 | 0.0 | 0.00 | 0.00 | 0.03 | 81 | 1014.5 |
| 20260505062733 | 6 | 93 | 0.0 | 0.0 | 0.00 | 0.00 | 0.03 | 81 | 1014.3 |
| 20260505062247 | 7 | 91 | 0.0 | 0.0 | 0.00 | 0.00 | 0.03 | 79 | 1014.3 |
| 20260505061746 | 7 | 102 | 0.0 | 0.0 | 0.00 | 0.00 | 0.00 | 78 | 1014.3 |
| 20260505061243 | 7 | 85 | 0.0 | 0.0 | 0.00 | 0.00 | 0.00 | 78 | 1014.1 |
| 20260505060743 | 7 | 94 | 0.0 | 0.0 | 0.00 | 0.00 | 0.00 | 76 | 1014.1 |
| 20260505060242 | 7 | 98 | 0.0 | 0.0 | 0.00 | 0.00 | 0.00 | 74 | 1014.1 |
| 20260505055738 | 7 | 91 | 0.0 | 0.0 | 0.00 | 0.00 | 0.00 | 74 | 1014.1 |
| 20260505055234 | 7 | 57 | 0.0 | 0.0 | 0.00 | 0.00 | 0.00 | 76 | 1014.1 |
| 20260505054730 | 6 | 54 | 0.0 | 0.0 | 0.00 | 0.00 | 0.00 | 77 | 1014.1 |
| 20260505054249 | 6 | 43 | 0.0 | 0.0 | 0.00 | 0.00 | 0.00 | 78 | 1014.2 |
| 20260505053745 | 6 | 55 | 0.0 | 0.0 | 0.00 | 0.00 | 0.00 | 77 | 1014.2 |
| 20260505053240 | 7 | 94 | 0.0 | 0.0 | 0.00 | 0.00 | 0.00 | 75 | 1014.2 |
| 20260505052736 | 7 | 122 | 0.0 | 0.0 | 0.00 | 0.00 | 0.00 | 73 | 1013.9 |
| 20260505052236 | 7 | 97 | 0.0 | 0.0 | 0.00 | 0.00 | 0.00 | 73 | 1013.9 |
| 20260505051735 | 7 | 108 | 0.0 | 0.0 | 0.00 | 0.00 | 0.00 | 71 | 1013.9 |
| 20260505051251 | 7 | 84 | 0.0 | 0.0 | 0.00 | 0.00 | 0.00 | 70 | 1013.9 |
| 20260505050746 | 7 | 98 | 0.0 | 0.0 | 0.00 | 0.00 | 0.00 | 69 | 1013.9 |
| 20260505050243 | 7 | 79 | 0.0 | 0.0 | 0.00 | 0.00 | 0.00 | 67 | 1013.9 |
| 20260505041746 | 8 | 79 | 0.0 | 0.0 | 0.00 | 0.00 | 0.00 | 62 | 1013.7 |
| 20260505041230 | 8 | 73 | 0.0 | 0.0 | 0.00 | 0.00 | 0.00 | 62 | 1013.8 |
| 20260505040748 | 8 | 99 | 0.0 | 0.0 | 0.00 | 0.00 | 0.00 | 61 | 1013.8 |
| 20260505040246 | 8 | 81 | 0.0 | 0.0 | 0.00 | 0.00 | 0.00 | 61 | 1013.8 |
| 20260505035742 | 8 | 91 | 0.0 | 0.0 | 0.00 | 0.00 | 0.00 | 61 | 1013.8 |
| 20260505035238 | 8 | 86 | 0.0 | 0.0 | 0.00 | 0.00 | 0.00 | 61 | 1013.8 |
| 20260505034735 | 9 | 86 | 0.0 | 0.0 | 0.00 | 0.00 | 0.00 | 61 | 1013.8 |
| 20260505034234 | 9 | 86 | 0.0 | 0.0 | 0.00 | 0.00 | 0.00 | 60 | 1014.2 |
| 20260505033731 | 8 | 89 | 0.0 | 0.0 | 0.00 | 0.00 | 0.00 | 61 | 1014.2 |
| 20260505033250 | 8 | 90 | 0.0 | 0.0 | 0.00 | 0.00 | 0.00 | 61 | 1014.2 |
| 20260505032745 | 8 | 91 | 0.0 | 0.0 | 0.00 | 0.00 | 0.00 | 61 | 1014.2 |
| 20260505032241 | 8 | 87 | 0.0 | 0.0 | 0.00 | 0.00 | 0.00 | 62 | 1014.2 |
| 20260505031738 | 8 | 97 | 0.0 | 0.0 | 0.00 | 0.00 | 0.00 | 62 | 1014.2 |
| 20260505031239 | 8 | 85 | 0.0 | 0.0 | 0.00 | 0.00 | 0.00 | 60 | 1014.2 |
| 20260505030738 | 8 | 89 | 0.0 | 0.0 | 0.00 | 0.00 | 0.00 | 60 | 1014.2 |
| 20260505030234 | 8 | 83 | 0.0 | 0.0 | 0.00 | 0.00 | 0.00 | 61 | 1014.2 |
| 20260505025734 | 8 | 95 | 0.0 | 0.0 | 0.00 | 0.00 | 0.00 | 60 | 1014.2 |
| 20260505025250 | 8 | 94 | 0.0 | 0.0 | 0.00 | 0.00 | 0.00 | 59 | 1014.2 |
| 20260505024746 | 8 | 90 | 0.0 | 0.0 | 0.00 | 0.00 | 0.00 | 59 | 1014.2 |
| 20260505024245 | 8 | 84 | 0.0 | 0.0 | 0.00 | 0.00 | 0.00 | 60 | 1014.5 |
| 20260505023746 | 8 | 92 | 0.0 | 0.0 | 0.00 | 0.00 | 0.00 | 60 | 1014.5 |
| 20260505023245 | 8 | 86 | 0.0 | 0.0 | 0.00 | 0.00 | 0.00 | 60 | 1014.5 |
| 20260505022741 | 8 | 84 | 0.0 | 0.0 | 0.00 | 0.00 | 0.00 | 60 | 1014.6 |
| 20260505022237 | 8 | 87 | 0.0 | 0.0 | 0.00 | 0.00 | 0.00 | 60 | 1014.6 |
| 20260505021733 | 8 | 96 | 0.0 | 0.0 | 0.00 | 0.00 | 0.00 | 59 | 1014.6 |
| 20260505021252 | 8 | 90 | 0.0 | 0.0 | 0.00 | 0.00 | 0.00 | 58 | 1014.6 |
| 20260505020749 | 8 | 100 | 0.0 | 0.0 | 0.00 | 0.00 | 0.00 | 57 | 1014.6 |
| 20260505020249 | 9 | 117 | 0.0 | 0.0 | 0.00 | 0.00 | 0.00 | 56 | 1014.6 |
| 20260505015748 | 9 | 111 | 0.0 | 0.0 | 0.00 | 0.00 | 0.00 | 56 | 1014.6 |
| 20260505015244 | 9 | 127 | 0.0 | 0.0 | 0.00 | 0.00 | 0.00 | 55 | 1014.6 |
| 20260505014740 | 9 | 101 | 0.0 | 0.0 | 0.00 | 0.00 | 0.00 | 54 | 1014.6 |